Location: Axtheid
(49.6213°N, 11.8205°E)
Time: 13:13:02
(UTC+00:00)

NOAA 11 - Pass Details

Date: 24 January 2021
Orbit: 832 x 850 km, 98.4° (Epoch: 25 February)

Event Time Altitude Azimuth Distance (km) Brightness Sun altitude
Rises 16:20:00 0° 154° (SSE) 3,404 7.3 -4.4°
Reaches altitude 10° 16:22:22 10° 152° (SSE) 2,473 6.6 -4.8°
Maximum altitude 16:27:48 67° 71° (ENE) 923 4.2 -5.6°
Drops below altitude 10° 16:33:16 10° 350° (N) 2,484 6.5 -6.4°
Sets 16:35:39 0° 348° (NNW) 3,422 7.3 -6.8°
